Flag for U.S.A. Weather past 2 weeks in Bowling Green, Kentucky, U.S.A.

Now
39 °F

Sunny.


Feels Like: 34 °F
Forecast: 38 / 49 °F
Wind: 6 mph from South

Location: Glasgow Municipal Airport

Current Time: Jan 25, 2015 at 8:59:15 AM

Latest Report: Jan 25, 2015 at 8:15 AM


Visibility: 10 mi

Pressure: 29.76 "Hg

Humidity: 77%

Dew point: 32 °F

Location of Bowling GreenLocation

Historic Weather in Bowling Green — Graph

°F

Bowling Green temperature yesterday

Maximum temperature yesterday: 45 °F (at 3:15 PM)
Minimum temperature yesterday: 22 °F (at 7:15 AM)
Average temperature yesterday: 34 °F

Past Weeks' High & Low Weather Summary

 TemperatureHumidityPressure
High60 °F (Jan 19, 2:35 PM)100% (Jan 12, 12:55 AM)30.62 "Hg (Jan 12, 12:55 AM)
Low6 °F (Jan 10, 7:15 AM)29% (Jan 10, 2:15 PM)29.76 "Hg (Jan 25, 7:15 AM)
Average35 °F76%30.17 "Hg
* Reported Jan 10 7:15 AM — Jan 25 7:35 AM, Bowling Green, Weather by CustomWeather, © 2014

Note: Actual official high and low records may vary slightly from our data, if they occured in-between our weather recording intervals... More about our weather records

Advertising

Bowling Green weather history for previous 24 hours

 ConditionsComfort  
Time TempWeatherWind HumidityBarometerVisibility
7:35 AM
Jan 25
37 °FSunny.6 mph79%29.76 "Hg10 mi
7:15 AM37 °FSunny.6 mph80%29.76 "Hg10 mi
6:55 AM36 °FSunny.6 mph81%29.77 "Hg10 mi
6:35 AM36 °FSunny.7 mph81%29.77 "Hg10 mi
6:15 AM36 °FSunny.6 mph81%29.77 "Hg10 mi
5:55 AM36 °FSunny.6 mph80%29.77 "Hg10 mi
5:35 AM36 °FClear.6 mph81%29.78 "Hg10 mi
5:15 AM36 °FClear.6 mph80%29.78 "Hg10 mi
4:55 AM36 °FClear.5 mph81%29.78 "Hg10 mi
4:35 AM36 °FClear.5 mph79%29.79 "Hg10 mi
4:15 AM36 °FClear.5 mph80%29.80 "Hg10 mi
3:55 AM36 °FClear.5 mph80%29.81 "Hg10 mi
3:35 AM37 °FClear.5 mph80%29.82 "Hg10 mi
3:15 AM36 °FClear.5 mph80%29.83 "Hg10 mi
2:55 AM36 °FClear.5 mph82%29.82 "Hg10 mi
2:35 AM36 °FClear.6 mph81%29.83 "Hg10 mi
2:15 AM36 °FClear.3 mph81%29.83 "Hg10 mi
1:55 AM36 °FChilly.5 mph81%29.83 "Hg10 mi
1:35 AM36 °FClear.3 mph81%29.85 "Hg10 mi
1:15 AM36 °FClear.5 mph80%29.84 "Hg10 mi
12:55 AM36 °FClear.3 mph82%29.84 "Hg10 mi
12:35 AM36 °FClear.5 mph82%29.85 "Hg10 mi
12:15 AM36 °FClear.3 mph82%29.86 "Hg10 mi
11:55 PM
Jan 24
35 °FClear.3 mph83%29.86 "Hg10 mi
11:35 PM36 °FClear.3 mph82%29.86 "Hg10 mi
11:15 PM35 °FClear.3 mph82%29.86 "Hg10 mi
10:55 PM35 °FClear.No wind81%29.87 "Hg10 mi
10:15 PM35 °FClear.No wind82%29.87 "Hg10 mi
9:35 PM35 °FClear.No wind83%29.87 "Hg10 mi
9:15 PM35 °FClear.No wind83%29.87 "Hg10 mi
8:55 PM34 °FClear.No wind88%29.87 "Hg10 mi
8:35 PM34 °FClear.No wind86%29.88 "Hg10 mi
8:15 PM35 °FClear.No wind87%29.88 "Hg10 mi
7:55 PM34 °FClear.No wind89%29.88 "Hg10 mi
7:15 PM35 °FClear.No wind86%29.88 "Hg10 mi
6:55 PM37 °FClear.No wind81%29.87 "Hg10 mi
6:15 PM39 °FClear.No wind75%29.86 "Hg10 mi
5:55 PM39 °FClear.3 mph75%29.86 "Hg10 mi
5:35 PM38 °FClear.3 mph78%29.85 "Hg10 mi
5:15 PM39 °FClear.3 mph75%29.85 "Hg10 mi
4:55 PM41 °FClear.5 mph72%29.84 "Hg10 mi
4:15 PM44 °FClear.8 mph68%29.83 "Hg10 mi
3:55 PM44 °FSunny.12 mph66%29.83 "Hg10 mi
3:15 PM45 °FSunny.13 mph64%29.83 "Hg10 mi
2:55 PM44 °FSunny.16 mph67%29.83 "Hg10 mi
2:15 PM44 °FSunny.14 mph64%29.83 "Hg10 mi
1:55 PM44 °FSunny.17 mph65%29.82 "Hg10 mi
1:35 PM44 °FSunny.13 mph65%29.82 "Hg10 mi
1:15 PM42 °FSunny.15 mph68%29.81 "Hg10 mi
12:55 PM41 °FSunny.14 mph72%29.83 "Hg10 mi
12:15 PM38 °FSunny.12 mph77%29.85 "Hg10 mi
11:55 AM37 °FSunny.13 mph80%29.87 "Hg7 mi
11:15 AM35 °FSunny.12 mph83%29.89 "Hg7 mi
10:55 AM34 °FSunny.10 mph85%29.90 "Hg7 mi
10:35 AM33 °FFog.8 mph85%29.91 "Hg5 mi
10:15 AM32 °FFog.7 mph88%29.92 "Hg5 mi
9:55 AM32 °FIce fog.6 mph87%29.92 "Hg5 mi
9:35 AM31 °FIce fog.8 mph88%29.92 "Hg5 mi
9:15 AM30 °FIce fog.7 mph92%29.92 "Hg4 mi
8:50 AM28 °FIce fog.5 mph100%29.91 "Hg3 mi
8:35 AM27 °FIce fog.3 mph100%29.91 "Hg3 mi
8:15 AM26 °FIce fog.No wind100%29.91 "Hg2 mi
Weather by CustomWeather, © 2014

See weather overviewHow to use our weather pages